Location: Vigo di Fassa
(46.4167°N, 11.6667°E)
Time: 14:53:29
(UTC+00:00)

ARGOS - Pass Details

Date: 03 March 2021
Orbit: 819 x 835 km, 98.4° (Epoch: 20 April)

Event Time Altitude Azimuth Distance (km) Brightness Sun altitude
Rises 17:48:51 0° 156° (SSE) 3,367 6.1 -8.8°
Reaches altitude 10° 17:51:12 10° 153° (SSE) 2,439 5.3 -9.2°
Maximum altitude 17:56:33 67° 72° (ENE) 905 3.2 -10.1°
Drops below altitude 10° 18:01:58 10° 351° (N) 2,459 5.8 -11.1°
Sets 18:04:21 0° 349° (N) 3,397 6.5 -11.5°
